Location: Clanezzo
(45.7500°N, 9.6000°E)
Time: 04:23:55
(UTC+00:00)

Resurs 01 Rocket - Pass Details

Date: 12 May 2021
Orbit: 633 x 645 km, 97.9° (Epoch: 18 June)

Event Time Altitude Azimuth Distance (km) Brightness Sun altitude
Exits shadow 20:25:36 10° 190° (S) 2,032 3.8 -15.0°
Maximum altitude 20:29:49 42° 262° (W) 918 2.7 -15.4°
Drops below altitude 10° 20:34:03 10° 333° (NNW) 2,046 5.5 -15.9°
Sets 20:36:22 0° 341° (NNW) 2,958 6.4 -16.2°
